| time (UTC) | temp F | wind direction | speed knots | gust knots | rain 1hr in | rain 24hr in | rain mn in | humidity % | barometer mb |
| 20260510234535 | 40 | 0 | 0.0 | 0.9 | 0.00 | 0.00 | 0.00 | 80 | 1013.1 |
| 20260510234010 | 40 | 0 | 0.0 | 0.9 | 0.00 | 0.00 | 0.00 | 80 | 1013.2 |
| 20260510233510 | 40 | 0 | 0.0 | 0.9 | 0.00 | 0.00 | 0.00 | 80 | 1013.3 |
| 20260510233038 | 40 | 0 | 0.0 | 0.0 | 0.00 | 0.00 | 0.00 | 79 | 1013.3 |
| 20260510232509 | 40 | 0 | 0.0 | 0.0 | 0.00 | 0.00 | 0.00 | 79 | 1013.5 |
| 20260510232014 | 40 | 0 | 0.0 | 0.9 | 0.00 | 0.00 | 0.00 | 78 | 1013.5 |
| 20260510231530 | 41 | 0 | 0.0 | 1.7 | 0.00 | 0.00 | 0.00 | 78 | 1013.6 |
| 20260510231010 | 41 | 360 | 0.0 | 1.7 | 0.00 | 0.00 | 0.00 | 78 | 1013.6 |
| 20260510230508 | 41 | 0 | 0.0 | 1.7 | 0.00 | 0.00 | 0.00 | 78 | 1013.8 |
| 20260510230033 | 41 | 360 | 0.0 | 1.7 | 0.00 | 0.00 | 0.00 | 78 | 1013.9 |
| 20260510225508 | 41 | 360 | 0.0 | 2.6 | 0.00 | 0.00 | 0.00 | 78 | 1013.9 |
| 20260510225010 | 41 | 360 | 0.0 | 2.6 | 0.00 | 0.00 | 0.00 | 78 | 1014.0 |
| 20260510224531 | 41 | 360 | 0.9 | 1.7 | 0.00 | 0.00 | 0.00 | 77 | 1014.0 |
| 20260510224011 | 41 | 0 | 0.0 | 1.7 | 0.00 | 0.00 | 0.00 | 76 | 1014.1 |
| 20260510223509 | 42 | 360 | 0.0 | 1.7 | 0.00 | 0.00 | 0.00 | 76 | 1014.1 |
| 20260510223029 | 42 | 0 | 0.0 | 1.7 | 0.00 | 0.00 | 0.00 | 75 | 1014.2 |
| 20260510222514 | 42 | 0 | 0.0 | 0.9 | 0.00 | 0.00 | 0.00 | 75 | 1014.2 |
| 20260510222013 | 42 | 0 | 0.0 | 0.9 | 0.00 | 0.00 | 0.00 | 75 | 1014.2 |
| 20260510221536 | 42 | 0 | 0.0 | 0.0 | 0.00 | 0.00 | 0.00 | 74 | 1014.3 |
| 20260510221007 | 42 | 0 | 0.0 | 0.0 | 0.00 | 0.00 | 0.00 | 74 | 1014.3 |
| 20260510220509 | 43 | 0 | 0.0 | 0.0 | 0.00 | 0.00 | 0.00 | 74 | 1014.3 |
| 20260510220031 | 43 | 0 | 0.0 | 0.0 | 0.00 | 0.00 | 0.00 | 73 | 1014.3 |
| 20260510215510 | 43 | 0 | 0.0 | 0.0 | 0.00 | 0.00 | 0.00 | 73 | 1014.4 |
| 20260510215013 | 43 | 0 | 0.0 | 0.0 | 0.00 | 0.00 | 0.00 | 72 | 1014.4 |
| 20260510214533 | 43 | 0 | 0.0 | 0.0 | 0.00 | 0.00 | 0.00 | 71 | 1014.5 |
| 20260510214012 | 43 | 0 | 0.0 | 0.0 | 0.00 | 0.00 | 0.00 | 70 | 1014.5 |
| 20260510213515 | 43 | 0 | 0.0 | 0.0 | 0.00 | 0.00 | 0.00 | 70 | 1014.7 |
| 20260510213028 | 44 | 0 | 0.0 | 0.0 | 0.00 | 0.00 | 0.00 | 70 | 1014.7 |
| 20260510212511 | 44 | 0 | 0.0 | 0.0 | 0.00 | 0.00 | 0.00 | 69 | 1014.7 |
| 20260510212012 | 44 | 0 | 0.0 | 0.0 | 0.00 | 0.00 | 0.00 | 69 | 1014.7 |
| 20260510211532 | 45 | 0 | 0.0 | 0.0 | 0.00 | 0.00 | 0.00 | 68 | 1014.7 |
| 20260510211012 | 45 | 0 | 0.0 | 0.0 | 0.00 | 0.00 | 0.00 | 67 | 1014.7 |
| 20260510210509 | 45 | 0 | 0.0 | 2.6 | 0.00 | 0.00 | 0.00 | 67 | 1014.7 |
| 20260510210030 | 45 | 0 | 0.0 | 2.6 | 0.00 | 0.00 | 0.00 | 66 | 1014.8 |
| 20260510205510 | 46 | 0 | 0.0 | 2.6 | 0.00 | 0.00 | 0.00 | 66 | 1014.7 |
| 20260510205011 | 46 | 0 | 0.0 | 1.7 | 0.00 | 0.00 | 0.00 | 65 | 1014.7 |
| 20260510204536 | 46 | 0 | 0.0 | 1.7 | 0.00 | 0.00 | 0.00 | 65 | 1014.6 |
| 20260510204011 | 46 | 0 | 0.0 | 2.6 | 0.00 | 0.00 | 0.00 | 64 | 1014.7 |
| 20260510203509 | 46 | 0 | 0.0 | 2.6 | 0.00 | 0.00 | 0.00 | 64 | 1014.7 |
| 20260510203030 | 47 | 0 | 0.9 | 2.6 | 0.00 | 0.00 | 0.00 | 64 | 1014.8 |
| 20260510202511 | 47 | 360 | 0.0 | 2.6 | 0.00 | 0.00 | 0.00 | 63 | 1014.8 |
| 20260510202012 | 47 | 360 | 0.0 | 1.7 | 0.00 | 0.00 | 0.00 | 63 | 1014.9 |
| 20260510201529 | 47 | 360 | 0.0 | 1.7 | 0.00 | 0.00 | 0.00 | 62 | 1014.9 |
| 20260510201013 | 48 | 360 | 0.0 | 1.7 | 0.00 | 0.00 | 0.00 | 61 | 1014.9 |
| 20260510200509 | 48 | 0 | 0.0 | 2.6 | 0.00 | 0.00 | 0.00 | 61 | 1014.9 |
| 20260510200028 | 48 | 0 | 0.0 | 2.6 | 0.00 | 0.00 | 0.00 | 61 | 1014.8 |
| 20260510195509 | 48 | 360 | 0.0 | 1.7 | 0.00 | 0.00 | 0.00 | 60 | 1014.9 |
| 20260510195011 | 48 | 360 | 0.0 | 2.6 | 0.00 | 0.00 | 0.00 | 60 | 1014.9 |
| 20260510194546 | 49 | 0 | 0.9 | 4.3 | 0.00 | 0.00 | 0.00 | 60 | 1015.0 |
| 20260510194010 | 49 | 360 | 0.9 | 4.3 | 0.00 | 0.00 | 0.00 | 59 | 1015.0 |
| 20260510193510 | 49 | 360 | 1.7 | 3.5 | 0.00 | 0.00 | 0.00 | 59 | 1015.0 |
| 20260510193030 | 49 | 360 | 0.9 | 4.3 | 0.00 | 0.00 | 0.00 | 59 | 1015.1 |
| 20260510192510 | 50 | 360 | 1.7 | 4.3 | 0.00 | 0.00 | 0.00 | 58 | 1015.1 |
| 20260510192011 | 50 | 360 | 1.7 | 4.3 | 0.00 | 0.00 | 0.00 | 58 | 1015.2 |
| 20260510191530 | 50 | 360 | 1.7 | 4.3 | 0.00 | 0.00 | 0.00 | 57 | 1015.3 |
| 20260510191010 | 50 | 360 | 1.7 | 4.3 | 0.00 | 0.00 | 0.00 | 57 | 1015.2 |
| 20260510190510 | 50 | 360 | 1.7 | 4.3 | 0.00 | 0.00 | 0.00 | 57 | 1015.2 |
| 20260510190044 | 51 | 360 | 1.7 | 4.3 | 0.00 | 0.00 | 0.00 | 56 | 1015.3 |
| 20260510185510 | 51 | 360 | 0.9 | 7.0 | 0.00 | 0.00 | 0.00 | 56 | 1015.3 |
| 20260510185012 | 51 | 360 | 2.6 | 7.0 | 0.00 | 0.00 | 0.00 | 56 | 1015.3 |
| 20260510184530 | 51 | 360 | 1.7 | 9.6 | 0.00 | 0.00 | 0.00 | 56 | 1015.3 |
| 20260510184011 | 51 | 360 | 2.6 | 9.6 | 0.00 | 0.00 | 0.00 | 55 | 1015.3 |
| 20260510183510 | 51 | 360 | 4.3 | 9.6 | 0.00 | 0.00 | 0.00 | 54 | 1015.3 |
| 20260510183030 | 52 | 360 | 2.6 | 7.8 | 0.00 | 0.00 | 0.00 | 54 | 1015.4 |
| 20260510182515 | 52 | 360 | 1.7 | 8.7 | 0.00 | 0.00 | 0.00 | 54 | 1015.4 |
| 20260510182009 | 52 | 360 | 2.6 | 8.7 | 0.00 | 0.00 | 0.00 | 53 | 1015.4 |
| 20260510181531 | 52 | 360 | 4.3 | 12.2 | 0.00 | 0.00 | 0.00 | 52 | 1015.4 |
| 20260510181010 | 53 | 360 | 4.3 | 12.2 | 0.00 | 0.00 | 0.00 | 51 | 1015.4 |
| 20260510180510 | 53 | 360 | 3.5 | 9.6 | 0.00 | 0.00 | 0.00 | 51 | 1015.4 |
| 20260510180032 | 53 | 360 | 2.6 | 8.7 | 0.00 | 0.00 | 0.00 | 51 | 1015.5 |
| 20260510175508 | 53 | 360 | 3.5 | 8.7 | 0.00 | 0.00 | 0.00 | 51 | 1015.5 |
| 20260510175009 | 53 | 360 | 2.6 | 7.8 | 0.00 | 0.00 | 0.00 | 52 | 1015.5 |
| 20260510174530 | 53 | 360 | 2.6 | 7.8 | 0.00 | 0.00 | 0.00 | 53 | 1015.5 |
| 20260510174012 | 53 | 360 | 2.6 | 7.8 | 0.00 | 0.00 | 0.00 | 52 | 1015.5 |
| 20260510173511 | 53 | 360 | 3.5 | 8.7 | 0.00 | 0.00 | 0.00 | 51 | 1015.6 |
| 20260510173030 | 53 | 360 | 3.5 | 8.7 | 0.00 | 0.00 | 0.00 | 50 | 1015.5 |
| 20260510172512 | 53 | 360 | 3.5 | 8.7 | 0.00 | 0.00 | 0.00 | 50 | 1015.4 |
| 20260510172009 | 53 | 360 | 2.6 | 8.7 | 0.00 | 0.00 | 0.00 | 50 | 1015.5 |
| 20260510171530 | 53 | 360 | 3.5 | 10.4 | 0.00 | 0.00 | 0.00 | 50 | 1015.6 |
| 20260510171011 | 54 | 360 | 4.3 | 10.4 | 0.00 | 0.00 | 0.00 | 49 | 1015.6 |
| 20260510170511 | 54 | 360 | 2.6 | 9.6 | 0.00 | 0.00 | 0.00 | 50 | 1015.7 |
| 20260510170029 | 54 | 360 | 4.3 | 9.6 | 0.00 | 0.00 | 0.00 | 49 | 1015.9 |
| 20260510165511 | 55 | 360 | 4.3 | 9.6 | 0.00 | 0.00 | 0.00 | 49 | 1015.7 |
| 20260510165011 | 54 | 360 | 3.5 | 9.6 | 0.00 | 0.00 | 0.00 | 51 | 1015.8 |
| 20260510164528 | 54 | 360 | 4.3 | 9.6 | 0.00 | 0.00 | 0.00 | 50 | 1015.9 |
| 20260510164009 | 54 | 360 | 3.5 | 12.2 | 0.00 | 0.00 | 0.00 | 49 | 1015.9 |
| 20260510163512 | 55 | 360 | 3.5 | 12.2 | 0.00 | 0.00 | 0.00 | 49 | 1016.1 |
| 20260510163027 | 55 | 360 | 6.1 | 12.2 | 0.00 | 0.00 | 0.00 | 49 | 1016.2 |
| 20260510162511 | 55 | 360 | 2.6 | 11.3 | 0.00 | 0.00 | 0.00 | 48 | 1016.2 |
| 20260510162010 | 55 | 360 | 6.1 | 11.3 | 0.00 | 0.00 | 0.00 | 47 | 1016.3 |
| 20260510161528 | 55 | 360 | 3.5 | 8.7 | 0.00 | 0.00 | 0.00 | 48 | 1016.3 |
| 20260510161014 | 55 | 360 | 2.6 | 9.6 | 0.00 | 0.00 | 0.00 | 49 | 1016.3 |
| 20260510160510 | 56 | 360 | 5.2 | 10.4 | 0.00 | 0.00 | 0.00 | 48 | 1016.4 |
| 20260510160035 | 56 | 360 | 4.3 | 10.4 | 0.00 | 0.00 | 0.00 | 47 | 1016.4 |
| 20260510155509 | 56 | 360 | 5.2 | 10.4 | 0.00 | 0.00 | 0.00 | 46 | 1016.5 |
| 20260510155011 | 56 | 360 | 3.5 | 9.6 | 0.00 | 0.00 | 0.00 | 49 | 1016.4 |
| 20260510154530 | 55 | 360 | 4.3 | 11.3 | 0.00 | 0.00 | 0.00 | 49 | 1016.5 |
| 20260510154013 | 55 | 360 | 5.2 | 11.3 | 0.00 | 0.00 | 0.00 | 47 | 1016.6 |
| 20260510153508 | 56 | 360 | 5.2 | 10.4 | 0.00 | 0.00 | 0.00 | 49 | 1016.6 |
| 20260510153032 | 56 | 360 | 3.5 | 9.6 | 0.00 | 0.00 | 0.00 | 49 | 1016.6 |
| 20260510152511 | 56 | 360 | 3.5 | 9.6 | 0.00 | 0.00 | 0.00 | 49 | 1016.7 |
| 20260510152011 | 56 | 360 | 3.5 | 9.6 | 0.00 | 0.00 | 0.00 | 51 | 1016.7 |
| 20260510151530 | 56 | 360 | 3.5 | 11.3 | 0.00 | 0.00 | 0.00 | 51 | 1016.8 |
| 20260510151010 | 55 | 360 | 3.5 | 11.3 | 0.00 | 0.00 | 0.00 | 52 | 1016.9 |
| 20260510150508 | 56 | 360 | 6.1 | 11.3 | 0.00 | 0.00 | 0.00 | 50 | 1016.9 |
| 20260510150029 | 56 | 360 | 3.5 | 10.4 | 0.00 | 0.00 | 0.00 | 51 | 1016.8 |
| 20260510145514 | 55 | 360 | 4.3 | 10.4 | 0.00 | 0.00 | 0.00 | 51 | 1017.0 |
| 20260510145010 | 56 | 360 | 5.2 | 10.4 | 0.00 | 0.00 | 0.00 | 50 | 1017.0 |
| 20260510144534 | 56 | 360 | 4.3 | 10.4 | 0.00 | 0.00 | 0.00 | 50 | 1017.0 |
| 20260510144011 | 56 | 360 | 5.2 | 17.4 | 0.00 | 0.00 | 0.00 | 50 | 1017.2 |
| 20260510143511 | 56 | 360 | 6.1 | 17.4 | 0.00 | 0.00 | 0.00 | 49 | 1017.2 |
| 20260510143028 | 56 | 360 | 5.2 | 17.4 | 0.00 | 0.00 | 0.00 | 50 | 1017.2 |
| 20260510142511 | 56 | 360 | 3.5 | 12.2 | 0.00 | 0.00 | 0.00 | 49 | 1017.3 |
| 20260510142015 | 57 | 360 | 6.1 | 12.2 | 0.00 | 0.00 | 0.00 | 48 | 1017.5 |
| 20260510141530 | 57 | 360 | 4.3 | 12.2 | 0.00 | 0.00 | 0.00 | 49 | 1017.3 |
| 20260510141012 | 57 | 360 | 4.3 | 12.2 | 0.00 | 0.00 | 0.00 | 49 | 1017.4 |
| 20260510140508 | 57 | 360 | 6.1 | 12.2 | 0.00 | 0.00 | 0.00 | 47 | 1017.5 |
| 20260510140030 | 57 | 360 | 3.5 | 9.6 | 0.00 | 0.00 | 0.00 | 51 | 1017.6 |
| 20260510135511 | 56 | 360 | 3.5 | 9.6 | 0.00 | 0.00 | 0.00 | 51 | 1017.5 |
| 20260510135009 | 56 | 360 | 3.5 | 11.3 | 0.00 | 0.00 | 0.00 | 51 | 1017.6 |
| 20260510134528 | 56 | 360 | 5.2 | 11.3 | 0.00 | 0.00 | 0.00 | 51 | 1017.6 |
| 20260510134008 | 56 | 360 | 2.6 | 10.4 | 0.00 | 0.00 | 0.00 | 51 | 1017.5 |
| 20260510133512 | 56 | 360 | 3.5 | 11.3 | 0.00 | 0.00 | 0.00 | 52 | 1017.6 |
| 20260510133028 | 55 | 360 | 5.2 | 12.2 | 0.00 | 0.00 | 0.00 | 52 | 1017.6 |
| 20260510132513 | 56 | 360 | 5.2 | 12.2 | 0.00 | 0.00 | 0.00 | 53 | 1017.6 |
| 20260510132009 | 56 | 360 | 4.3 | 12.2 | 0.00 | 0.00 | 0.00 | 54 | 1017.7 |
| 20260510131527 | 56 | 360 | 5.2 | 11.3 | 0.00 | 0.00 | 0.00 | 53 | 1017.7 |
| 20260510131015 | 55 | 360 | 4.3 | 13.0 | 0.00 | 0.00 | 0.00 | 53 | 1017.6 |
| 20260510130511 | 55 | 360 | 4.3 | 13.0 | 0.00 | 0.00 | 0.00 | 54 | 1017.8 |
| 20260510130029 | 55 | 360 | 7.0 | 13.0 | 0.00 | 0.00 | 0.00 | 54 | 1017.9 |
| 20260510125510 | 55 | 360 | 4.3 | 10.4 | 0.00 | 0.00 | 0.00 | 54 | 1017.9 |
| 20260510125010 | 56 | 360 | 5.2 | 8.7 | 0.00 | 0.00 | 0.00 | 55 | 1017.9 |
| 20260510124530 | 55 | 360 | 3.5 | 10.4 | 0.00 | 0.00 | 0.00 | 55 | 1017.9 |
| 20260510124021 | 54 | 360 | 4.3 | 12.2 | 0.00 | 0.00 | 0.00 | 55 | 1017.9 |
| 20260510123512 | 55 | 360 | 6.1 | 12.2 | 0.00 | 0.00 | 0.00 | 54 | 1018.2 |
| 20260510123031 | 55 | 360 | 4.3 | 11.3 | 0.00 | 0.00 | 0.00 | 56 | 1018.1 |
| 20260510122511 | 55 | 360 | 3.5 | 13.0 | 0.00 | 0.00 | 0.00 | 56 | 1018.1 |
| 20260510122012 | 55 | 360 | 6.1 | 13.0 | 0.00 | 0.00 | 0.00 | 56 | 1018.2 |
| 20260510121531 | 54 | 360 | 6.1 | 13.0 | 0.00 | 0.00 | 0.00 | 55 | 1018.5 |
| 20260510121010 | 54 | 360 | 3.5 | 8.7 | 0.00 | 0.00 | 0.00 | 57 | 1018.5 |
| 20260510120509 | 54 | 360 | 4.3 | 14.8 | 0.00 | 0.00 | 0.00 | 57 | 1018.5 |
| 20260510120030 | 54 | 360 | 4.3 | 14.8 | 0.00 | 0.00 | 0.00 | 57 | 1018.5 |
| 20260510115509 | 54 | 360 | 6.1 | 14.8 | 0.00 | 0.00 | 0.00 | 57 | 1018.6 |
| 20260510115014 | 53 | 94 | 6.1 | 11.3 | 0.00 | 0.00 | 0.00 | 60 | 1018.7 |
| 20260510114554 | 53 | 360 | 4.3 | 10.4 | 0.00 | 0.00 | 0.00 | 59 | 1018.9 |
| 20260510114011 | 53 | 360 | 3.5 | 10.4 | 0.00 | 0.00 | 0.00 | 60 | 1018.9 |
| 20260510113509 | 52 | 360 | 4.3 | 10.4 | 0.00 | 0.00 | 0.00 | 62 | 1018.9 |
| 20260510113040 | 52 | 360 | 4.3 | 12.2 | 0.00 | 0.00 | 0.00 | 62 | 1019.1 |
| 20260510112509 | 52 | 360 | 3.5 | 12.2 | 0.00 | 0.00 | 0.00 | 62 | 1019.1 |
| 20260510112013 | 52 | 360 | 4.3 | 11.3 | 0.00 | 0.00 | 0.00 | 62 | 1019.2 |
| 20260510111532 | 53 | 360 | 4.3 | 9.6 | 0.00 | 0.00 | 0.00 | 61 | 1019.2 |
| 20260510111011 | 52 | 360 | 4.3 | 11.3 | 0.00 | 0.00 | 0.00 | 63 | 1019.2 |
| 20260510110509 | 52 | 360 | 3.5 | 12.2 | 0.00 | 0.00 | 0.00 | 64 | 1019.3 |
| 20260510110036 | 52 | 360 | 5.2 | 12.2 | 0.00 | 0.00 | 0.00 | 64 | 1019.4 |
| 20260510105509 | 52 | 360 | 4.3 | 11.3 | 0.00 | 0.00 | 0.00 | 63 | 1019.4 |
| 20260510105009 | 52 | 360 | 4.3 | 11.3 | 0.00 | 0.00 | 0.00 | 63 | 1019.4 |
| 20260510104528 | 52 | 360 | 3.5 | 13.0 | 0.00 | 0.00 | 0.00 | 63 | 1019.5 |
| 20260510104010 | 52 | 360 | 5.2 | 13.0 | 0.00 | 0.00 | 0.00 | 63 | 1019.5 |
| 20260510103511 | 52 | 360 | 6.1 | 17.4 | 0.00 | 0.00 | 0.00 | 63 | 1019.6 |
| 20260510103028 | 52 | 360 | 6.1 | 17.4 | 0.00 | 0.00 | 0.00 | 64 | 1019.5 |
| 20260510102510 | 52 | 360 | 6.1 | 12.2 | 0.00 | 0.00 | 0.00 | 67 | 1019.5 |
| 20260510102016 | 51 | 360 | 6.1 | 12.2 | 0.00 | 0.00 | 0.00 | 68 | 1019.6 |
| 20260510101531 | 51 | 360 | 4.3 | 13.9 | 0.00 | 0.00 | 0.00 | 69 | 1019.8 |
| 20260510101008 | 50 | 360 | 4.3 | 13.9 | 0.00 | 0.00 | 0.00 | 69 | 1019.8 |
| 20260510100510 | 50 | 360 | 4.3 | 12.2 | 0.00 | 0.00 | 0.00 | 71 | 1019.8 |
| 20260510100033 | 50 | 360 | 4.3 | 11.3 | 0.00 | 0.00 | 0.00 | 71 | 1019.9 |
| 20260510095512 | 50 | 360 | 7.0 | 13.9 | 0.00 | 0.00 | 0.00 | 71 | 1019.9 |
| 20260510095008 | 49 | 360 | 5.2 | 13.9 | 0.00 | 0.00 | 0.00 | 72 | 1019.9 |
| 20260510094532 | 49 | 73 | 5.2 | 13.9 | 0.00 | 0.00 | 0.00 | 72 | 1019.9 |
| 20260510094012 | 49 | 360 | 4.3 | 11.3 | 0.00 | 0.00 | 0.00 | 72 | 1020.0 |
| 20260510093516 | 49 | 360 | 5.2 | 11.3 | 0.00 | 0.00 | 0.00 | 72 | 1020.0 |
| 20260510093028 | 49 | 360 | 5.2 | 10.4 | 0.00 | 0.00 | 0.00 | 72 | 1020.1 |
| 20260510092511 | 49 | 360 | 4.3 | 10.4 | 0.00 | 0.00 | 0.00 | 73 | 1020.1 |
| 20260510092014 | 49 | 360 | 5.2 | 10.4 | 0.00 | 0.00 | 0.00 | 73 | 1020.1 |
| 20260510091527 | 49 | 360 | 3.5 | 10.4 | 0.00 | 0.00 | 0.00 | 74 | 1020.2 |
| 20260510091010 | 48 | 360 | 2.6 | 14.8 | 0.00 | 0.00 | 0.00 | 74 | 1020.2 |
| 20260510090511 | 48 | 360 | 4.3 | 16.5 | 0.00 | 0.00 | 0.00 | 75 | 1020.3 |
| 20260510090031 | 48 | 360 | 7.0 | 16.5 | 0.00 | 0.00 | 0.00 | 74 | 1020.2 |
| 20260510085512 | 48 | 360 | 6.1 | 14.8 | 0.00 | 0.00 | 0.00 | 74 | 1020.1 |
| 20260510085012 | 48 | 360 | 4.3 | 13.0 | 0.00 | 0.00 | 0.00 | 74 | 1020.2 |
| 20260510084530 | 48 | 360 | 5.2 | 13.0 | 0.00 | 0.00 | 0.00 | 74 | 1020.2 |
| 20260510084008 | 48 | 360 | 5.2 | 13.0 | 0.00 | 0.00 | 0.00 | 74 | 1020.2 |
| 20260510083511 | 48 | 360 | 5.2 | 12.2 | 0.00 | 0.00 | 0.00 | 75 | 1020.2 |
| 20260510083028 | 48 | 360 | 6.1 | 11.3 | 0.00 | 0.00 | 0.00 | 75 | 1020.0 |
| 20260510082509 | 48 | 360 | 5.2 | 11.3 | 0.00 | 0.00 | 0.00 | 75 | 1020.1 |
| 20260510082011 | 48 | 360 | 5.2 | 11.3 | 0.00 | 0.00 | 0.00 | 75 | 1020.0 |
| 20260510081528 | 48 | 360 | 5.2 | 12.2 | 0.00 | 0.00 | 0.00 | 76 | 1020.0 |
| 20260510081011 | 48 | 360 | 5.2 | 12.2 | 0.00 | 0.00 | 0.00 | 76 | 1020.1 |
| 20260510080511 | 47 | 360 | 6.1 | 12.2 | 0.00 | 0.00 | 0.00 | 76 | 1019.9 |
| 20260510080030 | 47 | 360 | 5.2 | 13.0 | 0.00 | 0.00 | 0.00 | 77 | 1020.0 |
| 20260510075508 | 47 | 360 | 6.1 | 13.0 | 0.00 | 0.00 | 0.00 | 77 | 1020.0 |
| 20260510075008 | 47 | 360 | 4.3 | 11.3 | 0.00 | 0.00 | 0.00 | 78 | 1020.0 |
| 20260510074536 | 47 | 360 | 6.1 | 11.3 | 0.00 | 0.00 | 0.00 | 78 | 1019.9 |
| 20260510074011 | 47 | 360 | 5.2 | 11.3 | 0.00 | 0.00 | 0.00 | 78 | 1020.0 |
| 20260510073511 | 47 | 360 | 5.2 | 12.2 | 0.00 | 0.00 | 0.00 | 79 | 1020.0 |
| 20260510073031 | 47 | 360 | 5.2 | 12.2 | 0.00 | 0.00 | 0.00 | 79 | 1019.9 |
| 20260510072508 | 47 | 360 | 7.0 | 12.2 | 0.00 | 0.00 | 0.00 | 79 | 1020.0 |
| 20260510072011 | 46 | 360 | 6.1 | 12.2 | 0.00 | 0.00 | 0.00 | 80 | 1019.9 |
| 20260510071532 | 46 | 360 | 4.3 | 12.2 | 0.00 | 0.00 | 0.00 | 80 | 1019.9 |
| 20260510071011 | 46 | 360 | 5.2 | 12.2 | 0.00 | 0.00 | 0.00 | 81 | 1020.0 |
| 20260510070510 | 46 | 360 | 6.1 | 11.3 | 0.00 | 0.00 | 0.00 | 81 | 1019.9 |
| 20260510070033 | 46 | 360 | 5.2 | 11.3 | 0.00 | 0.00 | 0.00 | 81 | 1020.0 |
| 20260510065508 | 46 | 360 | 4.3 | 10.4 | 0.00 | 0.00 | 0.00 | 82 | 1020.0 |
| 20260510065008 | 46 | 360 | 5.2 | 10.4 | 0.00 | 0.00 | 0.00 | 82 | 1020.0 |
| 20260510064529 | 46 | 360 | 5.2 | 11.3 | 0.00 | 0.00 | 0.00 | 83 | 1020.0 |
| 20260510064007 | 45 | 360 | 5.2 | 11.3 | 0.00 | 0.00 | 0.00 | 83 | 1020.0 |
| 20260510063513 | 45 | 360 | 6.1 | 11.3 | 0.00 | 0.00 | 0.00 | 83 | 1020.1 |
| 20260510063027 | 45 | 360 | 3.5 | 9.6 | 0.00 | 0.00 | 0.00 | 83 | 1019.9 |
| 20260510062510 | 45 | 360 | 4.3 | 9.6 | 0.00 | 0.00 | 0.00 | 84 | 1019.9 |
| 20260510062011 | 45 | 360 | 5.2 | 12.2 | 0.00 | 0.00 | 0.00 | 84 | 1019.9 |
| 20260510061530 | 45 | 360 | 4.3 | 12.2 | 0.00 | 0.00 | 0.00 | 84 | 1020.0 |
| 20260510061011 | 45 | 360 | 3.5 | 10.4 | 0.00 | 0.00 | 0.00 | 84 | 1020.0 |
| 20260510060543 | 45 | 360 | 5.2 | 10.4 | 0.00 | 0.00 | 0.00 | 84 | 1019.8 |
| 20260510060033 | 45 | 360 | 4.3 | 11.3 | 0.00 | 0.00 | 0.00 | 84 | 1019.8 |
| 20260510055515 | 45 | 360 | 5.2 | 11.3 | 0.00 | 0.00 | 0.00 | 84 | 1019.8 |
| 20260510055012 | 46 | 360 | 6.1 | 11.3 | 0.00 | 0.00 | 0.00 | 85 | 1019.8 |
| 20260510054532 | 46 | 360 | 5.2 | 11.3 | 0.00 | 0.00 | 0.00 | 85 | 1019.8 |
| 20260510054008 | 46 | 360 | 4.3 | 11.3 | 0.00 | 0.00 | 0.00 | 85 | 1019.9 |
| 20260510053510 | 46 | 360 | 6.1 | 11.3 | 0.00 | 0.00 | 0.00 | 85 | 1019.9 |
| 20260510053028 | 46 | 360 | 5.2 | 10.4 | 0.00 | 0.00 | 0.00 | 86 | 1019.9 |
| 20260510052509 | 46 | 360 | 3.5 | 9.6 | 0.00 | 0.00 | 0.00 | 86 | 1019.9 |
| 20260510052008 | 46 | 360 | 3.5 | 9.6 | 0.00 | 0.00 | 0.00 | 86 | 1020.1 |
| 20260510051531 | 46 | 360 | 3.5 | 10.4 | 0.00 | 0.00 | 0.00 | 86 | 1020.1 |
| 20260510051008 | 46 | 360 | 5.2 | 10.4 | 0.00 | 0.00 | 0.00 | 86 | 1020.0 |
| 20260510050512 | 46 | 360 | 4.3 | 9.6 | 0.00 | 0.00 | 0.00 | 86 | 1020.1 |
| 20260510050028 | 46 | 360 | 5.2 | 9.6 | 0.00 | 0.00 | 0.00 | 86 | 1020.0 |
| 20260510045511 | 46 | 360 | 4.3 | 9.6 | 0.00 | 0.00 | 0.00 | 86 | 1019.9 |
| 20260510045013 | 46 | 360 | 4.3 | 9.6 | 0.00 | 0.00 | 0.00 | 86 | 1019.9 |
| 20260510044528 | 46 | 360 | 3.5 | 12.2 | 0.00 | 0.00 | 0.00 | 86 | 1019.8 |
| 20260510044008 | 46 | 360 | 5.2 | 12.2 | 0.00 | 0.00 | 0.00 | 86 | 1019.8 |
| 20260510043510 | 46 | 360 | 3.5 | 7.8 | 0.00 | 0.00 | 0.00 | 87 | 1019.8 |
| 20260510043031 | 46 | 360 | 2.6 | 9.6 | 0.00 | 0.00 | 0.00 | 87 | 1019.8 |
| 20260510042512 | 46 | 360 | 3.5 | 11.3 | 0.00 | 0.00 | 0.00 | 87 | 1019.9 |
| 20260510042010 | 46 | 360 | 5.2 | 11.3 | 0.00 | 0.00 | 0.00 | 87 | 1019.9 |
| 20260510041541 | 46 | 360 | 4.3 | 11.3 | 0.00 | 0.00 | 0.00 | 87 | 1019.9 |
| 20260510041009 | 46 | 360 | 4.3 | 9.6 | 0.00 | 0.00 | 0.00 | 87 | 1019.9 |
| 20260510040510 | 46 | 360 | 4.3 | 9.6 | 0.00 | 0.00 | 0.00 | 88 | 1020.0 |
| 20260510040029 | 46 | 360 | 2.6 | 8.7 | 0.00 | 0.00 | 0.00 | 88 | 1019.9 |
| 20260510035510 | 46 | 360 | 2.6 | 8.7 | 0.00 | 0.00 | 0.00 | 88 | 1020.0 |
| 20260510035010 | 46 | 360 | 2.6 | 10.4 | 0.00 | 0.00 | 0.00 | 88 | 1019.9 |
| 20260510034530 | 46 | 360 | 2.6 | 10.4 | 0.00 | 0.00 | 0.00 | 88 | 1019.8 |
| 20260510034009 | 46 | 360 | 3.5 | 10.4 | 0.00 | 0.00 | 0.00 | 88 | 1019.8 |
| 20260510033512 | 46 | 360 | 2.6 | 11.3 | 0.00 | 0.00 | 0.00 | 88 | 1019.9 |
| 20260510033029 | 46 | 360 | 5.2 | 11.3 | 0.00 | 0.00 | 0.00 | 88 | 1019.9 |
| 20260510032510 | 47 | 360 | 4.3 | 9.6 | 0.00 | 0.00 | 0.00 | 88 | 1019.8 |
| 20260510032012 | 47 | 360 | 3.5 | 9.6 | 0.00 | 0.00 | 0.00 | 89 | 1019.9 |
| 20260510031534 | 47 | 360 | 4.3 | 8.7 | 0.00 | 0.00 | 0.00 | 89 | 1020.0 |
| 20260510031011 | 47 | 360 | 4.3 | 9.6 | 0.00 | 0.00 | 0.00 | 89 | 1020.0 |
| 20260510030509 | 47 | 360 | 4.3 | 9.6 | 0.00 | 0.00 | 0.00 | 90 | 1020.1 |
| 20260510030028 | 47 | 360 | 3.5 | 7.8 | 0.00 | 0.00 | 0.00 | 90 | 1020.1 |
| 20260510025509 | 47 | 360 | 2.6 | 11.3 | 0.00 | 0.00 | 0.00 | 90 | 1020.2 |
| 20260510025010 | 46 | 360 | 4.3 | 11.3 | 0.00 | 0.00 | 0.00 | 90 | 1020.2 |
| 20260510024528 | 47 | 360 | 3.5 | 7.8 | 0.00 | 0.00 | 0.00 | 90 | 1020.2 |
| 20260510024009 | 47 | 360 | 3.5 | 8.7 | 0.00 | 0.00 | 0.00 | 91 | 1020.3 |
| 20260510023510 | 47 | 360 | 2.6 | 8.7 | 0.00 | 0.00 | 0.00 | 91 | 1020.3 |
| 20260510023028 | 47 | 360 | 4.3 | 8.7 | 0.00 | 0.00 | 0.00 | 91 | 1020.3 |
| 20260510022513 | 47 | 360 | 1.7 | 11.3 | 0.00 | 0.00 | 0.00 | 91 | 1020.5 |
| 20260510022012 | 47 | 360 | 2.6 | 11.3 | 0.00 | 0.00 | 0.00 | 91 | 1020.5 |
| 20260510021536 | 47 | 360 | 4.3 | 11.3 | 0.00 | 0.00 | 0.00 | 91 | 1020.4 |
| 20260510021012 | 47 | 360 | 5.2 | 10.4 | 0.00 | 0.00 | 0.00 | 91 | 1020.3 |
| 20260510020512 | 47 | 360 | 4.3 | 10.4 | 0.00 | 0.00 | 0.00 | 90 | 1020.3 |
| 20260510020031 | 47 | 360 | 3.5 | 10.4 | 0.00 | 0.00 | 0.00 | 90 | 1020.3 |
| 20260510015510 | 47 | 360 | 3.5 | 10.4 | 0.00 | 0.00 | 0.00 | 90 | 1020.5 |
| 20260510015009 | 47 | 360 | 2.6 | 9.6 | 0.00 | 0.00 | 0.00 | 90 | 1020.5 |
| 20260510014532 | 47 | 360 | 4.3 | 10.4 | 0.00 | 0.00 | 0.00 | 91 | 1020.5 |
| 20260510014011 | 47 | 360 | 5.2 | 10.4 | 0.00 | 0.00 | 0.00 | 91 | 1020.4 |
| 20260510013511 | 47 | 360 | 3.5 | 8.7 | 0.00 | 0.00 | 0.00 | 91 | 1020.3 |
| 20260510013032 | 47 | 360 | 2.6 | 10.4 | 0.00 | 0.00 | 0.00 | 91 | 1020.3 |
| 20260510012510 | 47 | 360 | 3.5 | 10.4 | 0.00 | 0.00 | 0.00 | 91 | 1020.3 |
| 20260510012011 | 47 | 360 | 4.3 | 10.4 | 0.00 | 0.00 | 0.00 | 91 | 1020.2 |
| 20260510011530 | 47 | 360 | 4.3 | 10.4 | 0.00 | 0.00 | 0.00 | 91 | 1020.1 |
| 20260510011010 | 47 | 360 | 4.3 | 8.7 | 0.00 | 0.00 | 0.00 | 91 | 1020.1 |
| 20260510010508 | 47 | 360 | 2.6 | 11.3 | 0.00 | 0.00 | 0.00 | 91 | 1020.1 |
| 20260510010028 | 47 | 360 | 4.3 | 11.3 | 0.00 | 0.00 | 0.00 | 90 | 1020.1 |
| 20260510005511 | 47 | 360 | 4.3 | 13.9 | 0.00 | 0.00 | 0.00 | 90 | 1020.1 |
| 20260510005009 | 47 | 360 | 4.3 | 13.9 | 0.00 | 0.00 | 0.00 | 90 | 1020.0 |
| 20260510004529 | 47 | 360 | 5.2 | 11.3 | 0.00 | 0.00 | 0.00 | 90 | 1019.9 |
| 20260510004014 | 48 | 360 | 4.3 | 13.0 | 0.00 | 0.00 | 0.00 | 89 | 1020.0 |
| 20260510003510 | 48 | 360 | 5.2 | 13.0 | 0.00 | 0.00 | 0.00 | 89 | 1020.1 |
| 20260510003028 | 48 | 360 | 3.5 | 9.6 | 0.00 | 0.00 | 0.00 | 88 | 1020.2 |
| 20260510002510 | 48 | 360 | 3.5 | 10.4 | 0.00 | 0.00 | 0.00 | 88 | 1020.1 |
| 20260510002010 | 48 | 360 | 3.5 | 10.4 | 0.00 | 0.00 | 0.00 | 88 | 1020.2 |
| 20260510001539 | 49 | 360 | 3.5 | 10.4 | 0.00 | 0.00 | 0.00 | 87 | 1020.2 |
| 20260510001010 | 49 | 24 | 1.7 | 10.4 | 0.00 | 0.00 | 0.00 | 87 | 1020.4 |
| 20260510000508 | 49 | 98 | 2.6 | 13.9 | 0.00 | 0.00 | 0.00 | 86 | 1020.2 |
| 20260510000028 | 49 | 360 | 5.2 | 13.9 | 0.00 | 0.00 | 0.00 | 86 | 1020.3 |
| 20260509235508 | 49 | 360 | 5.2 | 11.3 | 0.00 | 0.00 | 0.00 | 86 | 1020.4 |
| 20260509235014 | 49 | 360 | 5.2 | 11.3 | 0.00 | 0.00 | 0.00 | 86 | 1020.3 |